Location: Chantarel
(45.1638°N, 1.7873°E)
Time: 19:55:46
(UTC+00:00)

Meteor 1-19 Rocket - Pass Details

Date: 03 March 2021
Orbit: 807 x 928 km, 81.2° (Epoch: 13 April)

Event Time Altitude Azimuth Distance (km) Brightness Sun altitude
Rises 18:41:20 0° 348° (NNW) 3,566 7.6 -11.1°
Reaches altitude 10° 18:43:50 10° 349° (N) 2,607 6.9 -11.5°
Maximum altitude 18:49:48 88° 264° (W) 900 4.3 -12.6°
Drops below altitude 10° 18:55:33 10° 172° (S) 2,514 6.5 -13.6°
Sets 18:57:56 0° 172° (S) 3,429 7.2 -14.0°
